www.pogodaiklimat.ru

Погода и климат >> Архив погоды >> Канада >> Timmins


ПОГОДА в Timmins

  • Прогноз погоды в Timmins
  • Монитор погоды в Timmins
  • Климат города

АРХИВ ПОГОДЫ в Timmins

Время (UTC), дата Ветер
(напр.,м/с)
 
Видим.   Явления Облачность Т
(С)
Тd
(С)
f
(%)
Тe
(С)
Тes
(С)
Комфортность P
(гПа)
Po
(гПа)
Тmin
(С)
Tmax
(С)
R
(мм)
R24
(мм)
S
(см)
21 18.04 Ю 8 24 км 10/0
[]
+8.2 -10.2 26 +5 +5 1023.7 986.8
00 19.04 Ю 7 24 км 10/10 1000 м
[Sc]
+4.5 -0.5 70 -1 -1 1022.2 985.4 -10.7 +8.8
03 19.04 ЮВ 5 16 км 10/10 1000 м
[]
+2.0 +0.2 88 -4 -4 1019.4 983.0
06 19.04 ЮВ 5 24 км слабый дождь 10/10 1500 м
[Sc]
+2.8 +0.9 87 -3 -3 1015.1 979.0 -10.7 +8.8 1
09 19.04 Ю 5 12 км 10/10 1000 м
[]
+3.5 +2.2 91 -2 -2 1011.2 975.3
12 19.04 ЮВ 1 4800 м слабый дождь 10/10 300 м
[Frnb]
+3.3 +2.9 97 +2 +2 1011.9 975.8 +1.8 +8.8
15 19.04 СЗ 5 16 км 10/10 50 м
[]
+3.5 +2.5 93 -2 -2 1013.9 977.7
18 19.04 С 7 24 км слабый дождь 10/10 300 м
[Sc]
+3.0 +1.1 87 -3 -3 1018.4 982.0 +1.8 +3.9
21 19.04 С 4 12 км 10/10 200 м
[]
+2.9 +1.0 87 -2 -2 1022.5 986.0
00 20.04 С 4 24 км слабый дождь {морось} 8/8 600 м
[Sc]
+2.5 -0.4 81 -2 -2 1025.1 988.5 +2.3 +4.2
03 20.04 С 3 24 км 10/10 300 м
[]
+0.1 -2.0 86 -4 -4 1027.5 990.7
06 20.04 С 4 9000 м слабый снег 10/10 300 м
[Sc]
-1.2 -2.5 91 -7 -7 1027.9 991.0 -1.2 +4.2 191
09 20.04 В 3 24 км 6/0
[]
-3.0 -4.6 89 -8 -8 1027.7 990.8
12 20.04 В 3 24 км {снег} 10/9 300 м
[Sc Ci sp]
-2.7 -4.6 87 -7 -7 1027.1 990.2 -3.5 +4.2
15 20.04 В 3 24 км 10/10 300 м
[]
+1.1 -2.8 75 -3 -3 1026.5 989.6
18 20.04 В 6 24 км 10/1 300 м
[St Ac As]
+4.8 -3.0 57 0 +2 1023.4 986.7 -3.5 +5.1
21 20.04 В 6 24 км 10/10 1000 м
[]
+5.9 -3.2 52 +2 +2 1020.2 983.6
00 21.04 В 7 24 км 10/0
[Ac As]
+4.7 -4.9 50 -0 -0 1017.2 980.7 -3.5 +7.5
03 21.04 В 6 24 км 10/0 2000 м
[]
+3.9 -3.6 58 -1 -1 1015.8 979.5
06 21.04 СВ 5 3200 м слабый снег н/о +0.2 -0.5 95 -6 -6 1013.5 977.3 -3.5 +7.5 21
09 21.04 СВ 6 4800 м 10/10 200 м
[]
+0.5 -0.2 95 -6 -6 1010.8 974.7
12 21.04 4000 м слабый снег {дождь} н/о +0.4 -0.3 95 -6 -6 1011.3 975.1 +0.2 +7.5
15 21.04 С 6 8000 м 10/10 50 м
[]
+1.7 +0.7 93 -4 -4 1011.6 975.5
18 21.04 С 6 9000 м слабый дождь {снег} 10/10 50 м
[St]
+2.5 +1.5 93 -4 -4 1012.6 976.3 +0.2 +2.7
21 21.04 С 7 16 км 10/10 300 м
[]
+4.2 +2.4 88 -2 -2 1014.6 978.3
00 22.04 С 3 24 км {дождь} 9/9 300 м
[Sc]
+4.2 +1.9 85 0 0 1017.0 980.6 +0.2 +5.0
03 22.04 СЗ 3 24 км 9/9 1500 м
[]
+1.3 -0.5 88 -3 -3 1018.6 982.1
06 22.04 СЗ 4 24 км 6/0
[Ci]
-0.8 -3.2 84 -6 -6 1018.9 982.3 -0.9 +5.0 211
09 22.04 СЗ 3 24 км ясно -3.1 -5.0 87 -8 -8 1019.8 983.2
12 22.04 З 4 24 км ясно -0.5 -3.7 79 -6 -4 1020.4 983.9 -4.7 +5.0
15 22.04 СЗ 4 24 км ясно +8.1 -4.7 40 +6 +14 1020.4 984.1
18 22.04 З 2 24 км 1/0
[Ac trans]
+12.3 -6.1 27 +12 +27 опасность
простуды
1018.9 982.7 -4.7 +12.7
21 22.04 ЮЗ 2 24 км 3/3 600 м
[]
+14.4 -4.3 27 +15 +20 1016.4 980.3
00 23.04 Ю 3 24 км 8/0
[Ac trans Ci]
+11.7 -2.1 38 +11 +11 1014.5 978.5 -4.7 +15.3
03 23.04 ЮЗ 3 24 км 8/0
[]
+9.6 -3.3 40 +8 +8 1013.0 977.2
06 23.04 З 4 24 км 10/10 1000 м
[Sc]
+9.4 -2.2 44 +7 +7 1012.2 976.6 -4.7 +15.3
09 23.04 СЗ 6 24 км 10/10 300 м
[]
+3.4 +1.1 85 -2 -2 1012.8 977.1
12 23.04 СЗ 6 2400 м слабый снег 10/10 200 м
[Sc]
-2.8 -4.1 91 -10 -10 1017.1 980.9 -2.8 +15.3
15 23.04 СЗ 7 16 км 10/10 200 м
[]
-5.0 -7.9 80 -13 -13 1020.4 983.9
18 23.04 СЗ 4 24 км {снег} 6/6 1000 м
[Sc]
-1.0 -9.7 52 -6 -2 1021.0 984.6 -5.6 +9.3
21 23.04 СЗ 5 24 км 3/3 1000 м
[]
+1.0 -13.2 34 -4 -1 1021.3 984.8
00 24.04 С 4 24 км 1/0
[Ci fib]
-1.4 -14.7 36 -6 -6 1022.6 985.7 -5.6 +1.4
03 24.04 СВ 3 24 км ясно -5.6 -12.6 58 -10 -10 1024.9 987.6
06 24.04 СВ 3 24 км 3/0
[Ac trans]
-7.4 -12.3 68 -12 -12 1025.7 988.5 -7.4 +9.3 91
09 24.04 В 3 24 км 1/0
[]
-8.8 -12.3 76 -15 -15 1026.2 989.0
12 24.04 ЮВ 4 24 км 3/0
[Ac trans Ci fib]
-5.7 -12.5 59 -12 -11 1027.6 990.4 -9.4 +9.3
15 24.04 В 4 24 км 1/0
[]
-0.8 -14.5 35 -5 +3 1027.7 990.5
18 24.04 ЮВ 4 24 км 9/4 1500 м
[Sc Ac und]
+1.2 -12.7 35 -3 0 1026.2 989.1 -9.4 +1.8
21 24.04 ЮВ 5 24 км 10/10 1500 м
[]
+1.2 -11.3 39 -3 -3 1024.8 987.7
00 25.04 ЮВ 5 24 км 10/9 1000 м
[Sc Ac As]
+0.2 -10.7 44 -5 -5 1023.6 986.6 -9.4 +2.7
03 25.04 В 4 24 км 10/10 1000 м
[]
-1.2 -9.4 54 -6 -6 1022.1 985.3
06 25.04 В 5 24 км 10/0
[Ac As]
-0.9 -8.6 56 -6 -6 1020.8 984.1 -9.4 +2.7
09 25.04 ЮВ 4 24 км 5/0
[]
-1.6 -8.6 59 -7 -7 1019.2 982.5
12 25.04 ЮВ 5 24 км 8/0
[As op Ci]
+0.9 -8.1 51 -4 -3 1017.5 981.0 -2.0 +2.7
15 25.04 ЮВ 4 24 км 9/0
[]
+8.7 -5.2 37 +6 +10 1014.5 978.3

 

Местоположение метеостанции Timmins (Канада): широта 48.57 долгота -81.36 высота над уровнем моря 295 м.

В архиве по умолчанию представлена погода в Timmins за последнюю неделю. Архивные данные за месяц целиком и за предыдущие месяцы, начиная с января 2011 года, Вы можете получить, выбрав интересующий диапазон дат из раскрывающегося списка и нажав кнопку "Ввод!".

Внимание! Время в таблицах - всемирное. Для получения местного времени необходимо прибавить поправку, которая в Timmins равна -5 ч.

Смотрите также архив погоды в соседних городах и на ближайших метеорологических станциях:

Погода в Timmins Climate (Канада) (3 км)
Погода в Kirkland Lake (Канада) (111 км)
Погода в Kapuskasing (Канада) (122 км)
Погода в Kapuskasing (Канада) (122 км)
Погода в Kapuskasing Airport (Канада) (124 км)
Погода в Earlton (Канада) (148 км)
Погода в Earlton Climate (Канада) (151 км)
Погода в Chapleau A (Канада) (169 км)
Погода в Rouyn (Канада) (176 км)
Погода в Barrage Angliers (Канада) (195 км)

Пояснения к столбцам:

Ветер - указаны скорость ветра в м/с - средняя за 10 мин, порывы в срок и между сроками (в фигурных скобках) и направление, откуда дует ветер: С - северный, СВ - северо-восточный, В - восточный, ЮВ - юго-восточный, Ю - южный, ЮЗ - юго-западный, З - западный, СЗ - северо-западный.
Видимость - горизонтальная дальность видимости в метрах или километрах. При видимости от 1 до 10 км при отсутствии осадков обычно наблюдается дымка, при ухудшении видимости до 1 км и менее - туман. В сухую погоду видимость может ухудшаться дымом, пылью или мглою.
Явления - указаны атмосферные явления, наблюдавшиеся в срок или в последний час перед сроком; фигурными скобками обозначены явления, наблюдавшиеся между сроками (за 1-3 часа до срока); квадратными скобками обозначены град или гололедные отложения с указанием их диаметра в мм.
Облачность - указаны через наклонную черту общая и нижняя облачность в баллах и высота нижней границы облаков в метрах; квадратными скобками обозначены формы облаков: Ci - перистые, Cs - перисто-слоистые, Cc - перисто-кучевые, Ac - высококучевые, As - высокослоистые, Sc - слоисто-кучевые, Ns - слоисто-дождевые, Cu - кучевые, Cb - кучево-дождевые. Подробнее классификацию облаков см. в Атласе облаков (PDF).
T - Температура воздуха - температура, измеренная на высоте 2 м над землей.
Td - Температура точки росы - температура, при понижении до которой содержащийся в воздухе водяной пар достигнет насыщения.
f - Относительная влажность воздуха - влажноcть воздуха, измеренная на высоте 2 м над землей.
Te - Эффективная температура - температура, которую ощущает одетый по сезону человек в тени. Характеристика душности погоды. При расчете учитывается влияние влажности воздуха и скорости ветра на теплоощущения человека.
Tes - Эффективная температура на солнце - температура, которую ощущает человек, с поправкой на солнечный нагрев. Характеристика знойности погоды. Зависит от высоты солнца над горизонтом, облачности и скорости ветра. Ночью, в пасмурную погоду, а также при ветре 12 м/с и более поправка равна нулю.
P - Атмосферное давление - приведенное к уровню моря атмосферное давление.
Po - Атмосферное давление - измеренное на уровне метеостанции атмосферное давление.
Tmin - Минимальная температура - минимум температуры воздуха на высоте 2 м над землей.
Tmax - Максимальная температура - максимум температуры воздуха на высоте 2 м над землей.
R - Количество осадков - Количество выпавших осадков за период времени, мм. При наведении курсора мыши на число - период времени, за который выпало указанное количество осадков.
R24 - Количество осадков - Количество выпавших осадков за 24 часа, мм.
S - Снежный покров - Высота снежного покрова, см. При наведении курсора мыши на число - состояние снежного покрова и степень покрытия местности в баллах.